Terug naar catalogus

DMSP 5D-2 F8 DEB

ActiefSSO
NORAD 60252·DEBRIS·🇺🇸 United States

Gelanceerd Jun 20, 1987 vanaf Vandenberg Space Force Base

Loading…

Volgende Passages (komende 24 uur)

TLE

VersSource: Space-Track

Epoch: Sep 14, 2026, 00:10 UTC

1 60252U 87053K   26257.00707181  .00000987  00000-0  43951-3 0  9993
2 60252  98.7249  86.5736 0018225 232.5622 127.3900 14.25073089111780

Volg DMSP 5D-2 F8 DEB in realtime met AllMySat

Download on the App Store